Weather in Nonsan

South Korea     36°12′26″N   127°04′57″E
temp.,
°C
wind,
m/s
gust,
m/s
humid.,
%
clouds,
%
prec.,
mm/h
press.,
hPa
HPBL,
m
8 march, mon
mon800:00+5n128856 0.0 102826
03:00+3n228828 0.0 102824
06:00+2nne12880 0.0 102722
09:00+6nne12720 0.0 1029252
12:00+11ne12450 0.0 1028898
15:00+13nne11340 0.0 10251664
18:00+11wnw34480 0.0 1026139
21:00+6nw22640 0.0 102730
9 march, tue
tue900:00+5sw117017 0.0 102722
03:00+4ne007240 0.0 102722
06:00+3se0073100 0.0 102722
09:00+6n0161100 0.0 1028195
12:00+10w1237100 0.0 1027840
15:00+12nnw4431100 0.0 10251106
18:00+9nnw354769 0.0 1026273
21:00+6n125573 0.0 102822
10 march, wed
wed1000:00+5n116097 0.0 102822
03:00+3nne116648 0.0 102822
06:00+3ne12730 0.0 102922
09:00+7ne23640 0.0 1030221
12:00+13ene22440 0.0 1029717
15:00+16wsw11330 0.0 1027913
18:00+13wsw34510 0.0 102783
21:00+9ssw12631 0.0 102924
11 march, thu
thu1100:00+7sse116597 0.0 102922
03:00+6s116699 0.0 102922
06:00+6ne1168100 0.0 102822
09:00+9e1160100 0.0 102888
12:00+13nw2346100 0.0 1028774
15:00+15n2242100 0.0 10251221
18:00+13n355392 0.0 1024137
21:00+10nne236596 0.0 102653
12 march, fri
fri1200:00+8nne226791 0.0 102530
03:00+7nne226796 0.0 102526
06:00+6nne236994 0.0 102527
09:00+9nne346284 0.0 1026258
12:00+15nne354224 0.0 1025957
15:00+17ne343612 0.0 10231517
18:00+15n34470 0.0 102385
21:00+11nne34620 0.0 102578